Year,Month,Day,Hour,Minute,Value (Times are PST for temperature in C)
2018,12,04,00,00,3.20
2018,12,04,00,01,3.20
2018,12,04,00,02,3.20
2018,12,04,00,03,3.20
2018,12,04,00,04,3.10
2018,12,04,00,05,3.10
2018,12,04,00,06,3.10
2018,12,04,00,07,3.10
2018,12,04,00,08,3.10
2018,12,04,00,09,3.10
2018,12,04,00,10,3.10
2018,12,04,00,11,3.10
2018,12,04,00,12,3.10
2018,12,04,00,13,3.10
2018,12,04,00,14,3.10
2018,12,04,00,15,3.10
2018,12,04,00,16,3.10
2018,12,04,00,17,3.10
2018,12,04,00,18,3.10
2018,12,04,00,19,3.10
2018,12,04,00,20,3.00
2018,12,04,00,21,3.00
2018,12,04,00,22,3.10
2018,12,04,00,23,3.10
2018,12,04,00,24,3.10
2018,12,04,00,25,3.10
2018,12,04,00,26,3.10
2018,12,04,00,27,3.10
2018,12,04,00,28,3.10
2018,12,04,00,29,3.10
2018,12,04,00,30,3.20
2018,12,04,00,31,3.20
2018,12,04,00,32,3.20
2018,12,04,00,33,3.20
2018,12,04,00,34,3.20
2018,12,04,00,35,3.20
2018,12,04,00,36,3.20
2018,12,04,00,37,3.20
2018,12,04,00,38,3.20
2018,12,04,00,39,3.20
2018,12,04,00,40,3.20
2018,12,04,00,41,3.20
2018,12,04,00,42,3.20
2018,12,04,00,43,3.20
2018,12,04,00,44,3.20
2018,12,04,00,45,3.30
2018,12,04,00,46,3.30
2018,12,04,00,47,3.30
2018,12,04,00,48,3.30
2018,12,04,00,49,3.30
2018,12,04,00,50,3.20
2018,12,04,00,51,3.20
2018,12,04,00,52,3.20
2018,12,04,00,53,3.20
2018,12,04,00,54,3.20
2018,12,04,00,55,3.20
2018,12,04,00,56,3.20
2018,12,04,00,57,3.10
2018,12,04,00,58,3.10
2018,12,04,00,59,3.10
2018,12,04,01,00,3.10
2018,12,04,01,01,3.10
2018,12,04,01,02,3.10
2018,12,04,01,03,3.10
2018,12,04,01,04,3.00
2018,12,04,01,05,3.00
2018,12,04,01,06,3.00
2018,12,04,01,07,3.10
2018,12,04,01,08,3.10
2018,12,04,01,09,3.10
2018,12,04,01,10,3.10
2018,12,04,01,11,3.10
2018,12,04,01,12,3.10
2018,12,04,01,13,3.20
2018,12,04,01,14,3.20
2018,12,04,01,15,3.20
2018,12,04,01,16,3.20
2018,12,04,01,17,3.20
2018,12,04,01,18,3.20
2018,12,04,01,19,3.20
2018,12,04,01,20,3.20
2018,12,04,01,21,3.20
2018,12,04,01,22,3.20
2018,12,04,01,23,3.20
2018,12,04,01,24,3.20
2018,12,04,01,25,3.20
2018,12,04,01,26,3.20
2018,12,04,01,27,3.20
2018,12,04,01,28,3.20
2018,12,04,01,29,3.20
2018,12,04,01,30,3.20
2018,12,04,01,31,3.20
2018,12,04,01,32,3.20
2018,12,04,01,33,3.20
2018,12,04,01,34,3.20
2018,12,04,01,35,3.20
2018,12,04,01,36,3.20
2018,12,04,01,37,3.20
2018,12,04,01,38,3.20
2018,12,04,01,39,3.30
2018,12,04,01,40,3.30
2018,12,04,01,41,3.20
2018,12,04,01,42,3.20
2018,12,04,01,43,3.20
2018,12,04,01,44,3.20
2018,12,04,01,45,3.20
2018,12,04,01,46,3.20
2018,12,04,01,47,3.20
2018,12,04,01,48,3.20
2018,12,04,01,49,3.20
2018,12,04,01,50,3.20
2018,12,04,01,51,3.20
2018,12,04,01,52,3.20
2018,12,04,01,53,3.30
2018,12,04,01,54,3.30
2018,12,04,01,55,3.30
2018,12,04,01,56,3.30
2018,12,04,01,57,3.30
2018,12,04,01,58,3.30
2018,12,04,01,59,3.30
2018,12,04,02,00,3.30
2018,12,04,02,01,3.30
2018,12,04,02,02,3.30
2018,12,04,02,03,3.30
2018,12,04,02,04,3.30
2018,12,04,02,05,3.30
2018,12,04,02,06,3.30
2018,12,04,02,07,3.30
2018,12,04,02,08,3.20
2018,12,04,02,09,3.20
2018,12,04,02,10,3.20
2018,12,04,02,11,3.20
2018,12,04,02,12,3.20
2018,12,04,02,13,3.20
2018,12,04,02,14,3.20
2018,12,04,02,15,3.20
2018,12,04,02,16,3.20
2018,12,04,02,17,3.20
2018,12,04,02,18,3.20
2018,12,04,02,19,3.20
2018,12,04,02,20,3.20
2018,12,04,02,21,3.20
2018,12,04,02,22,3.20
2018,12,04,02,23,3.20
2018,12,04,02,24,3.10
2018,12,04,02,25,3.10
2018,12,04,02,26,3.10
2018,12,04,02,27,3.10
2018,12,04,02,28,3.10
2018,12,04,02,29,3.10
2018,12,04,02,30,3.10
2018,12,04,02,31,3.00
2018,12,04,02,32,3.00
2018,12,04,02,33,2.90
2018,12,04,02,34,2.80
2018,12,04,02,35,2.70
2018,12,04,02,36,2.60
2018,12,04,02,37,2.50
2018,12,04,02,38,2.40
2018,12,04,02,39,2.40
2018,12,04,02,40,2.30
2018,12,04,02,41,2.30
2018,12,04,02,42,2.20
2018,12,04,02,43,2.20
2018,12,04,02,44,2.10
2018,12,04,02,45,2.10
2018,12,04,02,46,2.00
2018,12,04,02,47,2.00
2018,12,04,02,48,1.90
2018,12,04,02,49,1.90
2018,12,04,02,50,1.90
2018,12,04,02,51,1.80
2018,12,04,02,52,1.80
2018,12,04,02,53,1.80
2018,12,04,02,54,1.70
2018,12,04,02,55,1.80
2018,12,04,02,56,1.80
2018,12,04,02,57,1.80
2018,12,04,02,58,1.80
2018,12,04,02,59,1.80
2018,12,04,03,00,1.90
2018,12,04,03,01,2.00
2018,12,04,03,02,2.00
2018,12,04,03,03,2.00
2018,12,04,03,04,1.90
2018,12,04,03,05,1.90
2018,12,04,03,06,1.90
2018,12,04,03,07,1.80
2018,12,04,03,08,1.80
2018,12,04,03,09,1.80
2018,12,04,03,10,1.80
2018,12,04,03,11,1.70
2018,12,04,03,12,1.70
2018,12,04,03,13,1.70
2018,12,04,03,14,1.60
2018,12,04,03,15,1.60
2018,12,04,03,16,1.50
2018,12,04,03,17,1.50
2018,12,04,03,18,1.50
2018,12,04,03,19,1.40
2018,12,04,03,20,1.40
2018,12,04,03,21,1.40
2018,12,04,03,22,1.40
2018,12,04,03,23,1.40
2018,12,04,03,24,1.40
2018,12,04,03,25,1.40
2018,12,04,03,26,1.40
2018,12,04,03,27,1.40
2018,12,04,03,28,1.40
2018,12,04,03,29,1.40
2018,12,04,03,30,1.40
2018,12,04,03,31,1.40
2018,12,04,03,32,1.40
2018,12,04,03,33,1.40
2018,12,04,03,34,1.40
2018,12,04,03,35,1.40
2018,12,04,03,36,1.40
2018,12,04,03,37,1.40
2018,12,04,03,38,1.40
2018,12,04,03,39,1.50
2018,12,04,03,40,1.50
2018,12,04,03,41,1.50
2018,12,04,03,42,1.50
2018,12,04,03,43,1.50
2018,12,04,03,44,1.50
2018,12,04,03,45,1.50
2018,12,04,03,46,1.50
2018,12,04,03,47,1.60
2018,12,04,03,48,1.60
2018,12,04,03,49,1.60
2018,12,04,03,50,1.60
2018,12,04,03,51,1.60
2018,12,04,03,52,1.60
2018,12,04,03,53,1.60
2018,12,04,03,54,1.70
2018,12,04,03,55,1.70
2018,12,04,03,56,1.70
2018,12,04,03,57,1.70
2018,12,04,03,58,1.70
2018,12,04,03,59,1.70
2018,12,04,04,00,1.70
2018,12,04,04,01,1.70
2018,12,04,04,02,1.70
2018,12,04,04,03,1.70
2018,12,04,04,04,1.70
2018,12,04,04,05,1.70
2018,12,04,04,06,1.70
2018,12,04,04,07,1.70
2018,12,04,04,08,1.70
2018,12,04,04,09,1.70
2018,12,04,04,10,1.70
2018,12,04,04,11,1.70
2018,12,04,04,12,1.70
2018,12,04,04,13,1.70
2018,12,04,04,14,1.70
2018,12,04,04,15,1.70
2018,12,04,04,16,1.70
2018,12,04,04,17,1.70
2018,12,04,04,18,1.70
2018,12,04,04,19,1.70
2018,12,04,04,20,1.60
2018,12,04,04,21,1.60
2018,12,04,04,22,1.50
2018,12,04,04,23,1.50
2018,12,04,04,24,1.50
2018,12,04,04,25,1.40
2018,12,04,04,26,1.40
2018,12,04,04,27,1.40
2018,12,04,04,28,1.40
2018,12,04,04,29,1.40
2018,12,04,04,30,1.40
2018,12,04,04,31,1.40
2018,12,04,04,32,1.40
2018,12,04,04,33,1.40
2018,12,04,04,34,1.40
2018,12,04,04,35,1.40
2018,12,04,04,36,1.40
2018,12,04,04,37,1.40
2018,12,04,04,38,1.30
2018,12,04,04,39,1.30
2018,12,04,04,40,1.30
2018,12,04,04,41,1.30
2018,12,04,04,42,1.20
2018,12,04,04,43,1.20
2018,12,04,04,44,1.20
2018,12,04,04,45,1.20
2018,12,04,04,46,1.20
2018,12,04,04,47,1.20
2018,12,04,04,48,1.10
2018,12,04,04,49,1.10
2018,12,04,04,50,1.10
2018,12,04,04,51,1.10
2018,12,04,04,52,1.10
2018,12,04,04,53,1.10
2018,12,04,04,54,1.10
2018,12,04,04,55,1.10
2018,12,04,04,56,1.10
2018,12,04,04,57,1.10
2018,12,04,04,58,1.10
2018,12,04,04,59,1.10
2018,12,04,05,00,1.20
2018,12,04,05,01,1.20
2018,12,04,05,02,1.20
2018,12,04,05,03,1.20
2018,12,04,05,04,1.20
2018,12,04,05,05,1.20
2018,12,04,05,06,1.20
2018,12,04,05,07,1.10
2018,12,04,05,08,1.10
2018,12,04,05,09,1.10
2018,12,04,05,10,1.10
2018,12,04,05,11,1.10
2018,12,04,05,12,1.10
2018,12,04,05,13,1.10
2018,12,04,05,14,1.10
2018,12,04,05,15,1.10
2018,12,04,05,16,1.10
2018,12,04,05,17,1.10
2018,12,04,05,18,1.20
2018,12,04,05,19,1.20
2018,12,04,05,20,1.20
2018,12,04,05,21,1.20
2018,12,04,05,22,1.20
2018,12,04,05,23,1.20
2018,12,04,05,24,1.20
2018,12,04,05,25,1.20
2018,12,04,05,26,1.10
2018,12,04,05,27,1.10
2018,12,04,05,28,1.10
2018,12,04,05,29,1.10
2018,12,04,05,30,1.10
2018,12,04,05,31,1.10
2018,12,04,05,32,1.10
2018,12,04,05,33,1.10
2018,12,04,05,34,1.00
2018,12,04,05,35,1.00
2018,12,04,05,36,1.00
2018,12,04,05,37,1.00
2018,12,04,05,38,1.00
2018,12,04,05,39,1.10
2018,12,04,05,40,1.10
2018,12,04,05,41,1.10
2018,12,04,05,42,1.20
2018,12,04,05,43,1.20
2018,12,04,05,44,1.20
2018,12,04,05,45,1.30
2018,12,04,05,46,1.30
2018,12,04,05,47,1.30
2018,12,04,05,48,1.30
2018,12,04,05,49,1.30
2018,12,04,05,50,1.30
2018,12,04,05,51,1.30
2018,12,04,05,52,1.30
2018,12,04,05,53,1.20
2018,12,04,05,54,1.20
2018,12,04,05,55,1.20
2018,12,04,05,56,1.10
2018,12,04,05,57,1.10
2018,12,04,05,58,1.10
2018,12,04,05,59,1.00
2018,12,04,06,00,1.00
2018,12,04,06,01,1.00
2018,12,04,06,02,1.00
2018,12,04,06,03,1.00
2018,12,04,06,04,1.00
2018,12,04,06,05,0.90
2018,12,04,06,06,0.90
2018,12,04,06,07,0.90
2018,12,04,06,08,0.90
2018,12,04,06,09,0.90
2018,12,04,06,10,0.90
2018,12,04,06,11,0.90
2018,12,04,06,12,0.90
2018,12,04,06,13,0.90
2018,12,04,06,14,0.90
2018,12,04,06,15,0.90
2018,12,04,06,16,0.80
2018,12,04,06,17,0.80
2018,12,04,06,18,0.80
2018,12,04,06,19,0.80
2018,12,04,06,20,0.70
2018,12,04,06,21,0.70
2018,12,04,06,22,0.70
2018,12,04,06,23,0.70
2018,12,04,06,24,0.70
2018,12,04,06,25,0.70
2018,12,04,06,26,0.60
2018,12,04,06,27,0.60
2018,12,04,06,28,0.60
2018,12,04,06,29,0.60
2018,12,04,06,30,0.50
2018,12,04,06,31,0.50
2018,12,04,06,32,0.50
2018,12,04,06,33,0.50
2018,12,04,06,34,0.50
2018,12,04,06,35,0.50
2018,12,04,06,36,0.50
2018,12,04,06,37,0.50
2018,12,04,06,38,0.50
2018,12,04,06,39,0.50
2018,12,04,06,40,0.40
2018,12,04,06,41,0.40
2018,12,04,06,42,0.40
2018,12,04,06,43,0.40
2018,12,04,06,44,0.40
2018,12,04,06,45,0.40
2018,12,04,06,46,0.40
2018,12,04,06,47,0.40
2018,12,04,06,48,0.40
2018,12,04,06,49,0.40
2018,12,04,06,50,0.40
2018,12,04,06,51,0.40
2018,12,04,06,52,0.40
2018,12,04,06,53,0.40
2018,12,04,06,54,0.40
2018,12,04,06,55,0.40
2018,12,04,06,56,0.40
2018,12,04,06,57,0.40
2018,12,04,06,58,0.40
2018,12,04,06,59,0.40
2018,12,04,07,00,0.40
2018,12,04,07,01,0.40
2018,12,04,07,02,0.40
2018,12,04,07,03,0.40
2018,12,04,07,04,0.40
2018,12,04,07,05,0.40
2018,12,04,07,06,0.40
2018,12,04,07,07,0.40
2018,12,04,07,08,0.40
2018,12,04,07,09,0.50
2018,12,04,07,10,0.50
2018,12,04,07,11,0.50
2018,12,04,07,12,0.50
2018,12,04,07,13,0.50
2018,12,04,07,14,0.40
2018,12,04,07,15,0.40
2018,12,04,07,16,0.40
2018,12,04,07,17,0.40
2018,12,04,07,18,0.40
2018,12,04,07,19,0.40
2018,12,04,07,20,0.40
2018,12,04,07,21,0.40
2018,12,04,07,22,0.40
2018,12,04,07,23,0.50
2018,12,04,07,24,0.60
2018,12,04,07,25,0.60
2018,12,04,07,26,0.60
2018,12,04,07,27,0.60
2018,12,04,07,28,0.60
2018,12,04,07,29,0.60
2018,12,04,07,30,0.60
2018,12,04,07,31,0.60
2018,12,04,07,32,0.60
2018,12,04,07,33,0.60
2018,12,04,07,34,0.60
2018,12,04,07,35,0.60
2018,12,04,07,36,0.60
2018,12,04,07,37,0.60
2018,12,04,07,38,0.60
2018,12,04,07,39,0.60
2018,12,04,07,40,0.60
2018,12,04,07,41,0.50
2018,12,04,07,42,0.50
2018,12,04,07,43,0.50
2018,12,04,07,44,0.50
2018,12,04,07,45,0.50
2018,12,04,07,46,0.50
2018,12,04,07,47,0.50
2018,12,04,07,48,0.50
2018,12,04,07,49,0.50
2018,12,04,07,50,0.60
2018,12,04,07,51,0.60
2018,12,04,07,52,0.60
2018,12,04,07,53,0.60
2018,12,04,07,54,0.60
2018,12,04,07,55,0.60
2018,12,04,07,56,0.60
2018,12,04,07,57,0.70
2018,12,04,07,58,0.70
2018,12,04,07,59,0.70
2018,12,04,08,00,0.70
2018,12,04,08,01,0.70
2018,12,04,08,02,0.70
2018,12,04,08,03,0.80
2018,12,04,08,04,0.80
2018,12,04,08,05,0.80
2018,12,04,08,06,0.80
2018,12,04,08,07,0.80
2018,12,04,08,08,0.80
2018,12,04,08,09,0.80
2018,12,04,08,10,0.80
2018,12,04,08,11,0.80
2018,12,04,08,12,0.90
2018,12,04,08,13,0.90
2018,12,04,08,14,0.90
2018,12,04,08,15,0.90
2018,12,04,08,16,0.90
2018,12,04,08,17,0.90
2018,12,04,08,18,0.90
2018,12,04,08,19,0.90
2018,12,04,08,20,0.90
2018,12,04,08,21,0.90
2018,12,04,08,22,0.90
2018,12,04,08,23,0.90
2018,12,04,08,24,0.90
2018,12,04,08,25,0.90
2018,12,04,08,26,0.90
2018,12,04,08,27,0.90
2018,12,04,08,28,0.90
2018,12,04,08,29,0.90
2018,12,04,08,30,0.90
2018,12,04,08,31,0.90
2018,12,04,08,32,0.90
2018,12,04,08,33,0.90
2018,12,04,08,34,0.90
2018,12,04,08,35,0.90
2018,12,04,08,36,0.90
2018,12,04,08,37,0.80
2018,12,04,08,38,0.80
2018,12,04,08,39,0.80
2018,12,04,08,40,0.80
2018,12,04,08,41,0.80
2018,12,04,08,42,0.80
2018,12,04,08,43,0.80
2018,12,04,08,44,0.80
2018,12,04,08,45,0.80
2018,12,04,08,46,0.80
2018,12,04,08,47,0.80
2018,12,04,08,48,0.80
2018,12,04,08,49,0.80
2018,12,04,08,50,0.80
2018,12,04,08,51,0.80
2018,12,04,08,52,0.80
2018,12,04,08,53,0.80
2018,12,04,08,54,0.80
2018,12,04,08,55,0.80
2018,12,04,08,56,0.80
2018,12,04,08,57,0.80
2018,12,04,08,58,0.80
2018,12,04,08,59,0.90
2018,12,04,09,00,0.90
2018,12,04,09,01,0.90
2018,12,04,09,02,0.90
2018,12,04,09,03,0.90
2018,12,04,09,04,0.90
2018,12,04,09,05,0.90
2018,12,04,09,06,0.90
2018,12,04,09,07,0.90
2018,12,04,09,08,1.00
2018,12,04,09,09,1.00
2018,12,04,09,10,1.00
2018,12,04,09,11,1.10
2018,12,04,09,12,1.10
2018,12,04,09,13,1.10
2018,12,04,09,14,1.10
2018,12,04,09,15,1.20
2018,12,04,09,16,1.20
2018,12,04,09,17,1.20
2018,12,04,09,18,1.20
2018,12,04,09,19,1.20
2018,12,04,09,20,1.30
2018,12,04,09,21,1.30
2018,12,04,09,22,1.30
2018,12,04,09,23,1.30
2018,12,04,09,24,1.30
2018,12,04,09,25,1.30
2018,12,04,09,26,1.40
2018,12,04,09,27,1.40
2018,12,04,09,28,1.40
2018,12,04,09,29,1.50
2018,12,04,09,30,1.50
2018,12,04,09,31,1.50
2018,12,04,09,32,1.60
2018,12,04,09,33,1.60
2018,12,04,09,34,1.60
2018,12,04,09,35,1.60
2018,12,04,09,36,1.60
2018,12,04,09,37,1.60
2018,12,04,09,38,1.60
2018,12,04,09,39,1.70
2018,12,04,09,40,1.80
2018,12,04,09,41,1.80
2018,12,04,09,42,1.90
2018,12,04,09,43,1.90
2018,12,04,09,44,1.90
2018,12,04,09,45,2.00
2018,12,04,09,46,2.00
2018,12,04,09,47,2.10
2018,12,04,09,48,2.10
2018,12,04,09,49,2.20
2018,12,04,09,50,2.20
2018,12,04,09,51,2.20
2018,12,04,09,52,2.30
2018,12,04,09,53,2.30
2018,12,04,09,54,2.30
2018,12,04,09,55,2.30
2018,12,04,09,56,2.30
2018,12,04,09,57,2.40
2018,12,04,09,58,2.40
2018,12,04,09,59,2.40
2018,12,04,10,00,2.40
2018,12,04,10,01,2.40
2018,12,04,10,02,2.50
2018,12,04,10,03,2.50
2018,12,04,10,04,2.50
2018,12,04,10,05,2.60
2018,12,04,10,06,2.60
2018,12,04,10,07,2.60
2018,12,04,10,08,2.70
2018,12,04,10,09,2.70
2018,12,04,10,10,2.70
2018,12,04,10,11,2.80
2018,12,04,10,12,2.80
2018,12,04,10,13,2.90
2018,12,04,10,14,2.90
2018,12,04,10,15,3.00
2018,12,04,10,16,3.00
2018,12,04,10,17,3.10
2018,12,04,10,18,3.20
2018,12,04,10,19,3.30
2018,12,04,10,20,3.30
2018,12,04,10,21,3.40
2018,12,04,10,22,3.50
2018,12,04,10,23,3.50
2018,12,04,10,24,3.60
2018,12,04,10,25,3.70
2018,12,04,10,26,3.70
2018,12,04,10,27,3.80
2018,12,04,10,28,3.80
2018,12,04,10,29,3.90
2018,12,04,10,30,3.90
2018,12,04,10,31,3.90
2018,12,04,10,32,4.00
2018,12,04,10,33,4.10
2018,12,04,10,34,4.10
2018,12,04,10,35,4.20
2018,12,04,10,36,4.20
2018,12,04,10,37,4.30
2018,12,04,10,38,4.30
2018,12,04,10,39,4.40
2018,12,04,10,40,4.40
2018,12,04,10,41,4.50
2018,12,04,10,42,4.50
2018,12,04,10,43,4.60
2018,12,04,10,44,4.60
2018,12,04,10,45,4.70
2018,12,04,10,46,4.70
2018,12,04,10,47,4.70
2018,12,04,10,48,4.70
2018,12,04,10,49,4.80
2018,12,04,10,50,4.80
2018,12,04,10,51,4.80
2018,12,04,10,52,4.80
2018,12,04,10,53,4.90
2018,12,04,10,54,4.90
2018,12,04,10,55,4.90
2018,12,04,10,56,5.00
2018,12,04,10,57,5.00
2018,12,04,10,58,5.00
2018,12,04,10,59,5.10
2018,12,04,11,00,5.10
2018,12,04,11,01,5.20
2018,12,04,11,02,5.20
2018,12,04,11,03,5.20
2018,12,04,11,04,5.20
2018,12,04,11,05,5.30
2018,12,04,11,06,5.30
2018,12,04,11,07,5.30
2018,12,04,11,08,5.30
2018,12,04,11,09,5.30
2018,12,04,11,10,5.40
2018,12,04,11,11,5.40
2018,12,04,11,12,5.40
2018,12,04,11,13,5.40
2018,12,04,11,14,5.40
2018,12,04,11,15,5.50
2018,12,04,11,16,5.50
2018,12,04,11,17,5.50
2018,12,04,11,18,5.50
2018,12,04,11,19,5.50
2018,12,04,11,20,5.50
2018,12,04,11,21,5.50
2018,12,04,11,22,5.60
2018,12,04,11,23,5.60
2018,12,04,11,24,5.60
2018,12,04,11,25,5.60
2018,12,04,11,26,5.60
2018,12,04,11,27,5.60
2018,12,04,11,28,5.60
2018,12,04,11,29,5.60
2018,12,04,11,30,5.60
2018,12,04,11,31,5.60
2018,12,04,11,32,5.60
2018,12,04,11,33,5.70
2018,12,04,11,34,5.70
2018,12,04,11,35,5.70
2018,12,04,11,36,5.80
2018,12,04,11,37,5.80
2018,12,04,11,38,5.80
2018,12,04,11,39,5.80
2018,12,04,11,40,5.80
2018,12,04,11,41,5.80
2018,12,04,11,42,5.80
2018,12,04,11,43,5.80
2018,12,04,11,44,5.80
2018,12,04,11,45,5.80
2018,12,04,11,46,5.80
2018,12,04,11,47,5.80
2018,12,04,11,48,5.90
2018,12,04,11,49,5.90
2018,12,04,11,50,5.90
2018,12,04,11,51,5.90
2018,12,04,11,52,6.00
2018,12,04,11,53,6.00
2018,12,04,11,54,6.00
2018,12,04,11,55,6.00
2018,12,04,11,56,6.10
2018,12,04,11,57,6.10
2018,12,04,11,58,6.10
2018,12,04,11,59,6.20
2018,12,04,12,00,6.20
2018,12,04,12,01,6.20
2018,12,04,12,02,6.30
2018,12,04,12,03,6.30
2018,12,04,12,04,6.30
2018,12,04,12,05,6.30
2018,12,04,12,06,6.30
2018,12,04,12,07,6.30
2018,12,04,12,08,6.30
2018,12,04,12,09,6.40
2018,12,04,12,10,6.40
2018,12,04,12,11,6.40
2018,12,04,12,12,6.40
2018,12,04,12,13,6.40
2018,12,04,12,14,6.40
2018,12,04,12,15,6.40
2018,12,04,12,16,6.40
2018,12,04,12,17,6.40
2018,12,04,12,18,6.40
2018,12,04,12,19,6.40
2018,12,04,12,20,6.40
2018,12,04,12,21,6.40
2018,12,04,12,22,6.30
2018,12,04,12,23,6.30
2018,12,04,12,24,6.30
2018,12,04,12,25,6.30
2018,12,04,12,26,6.20
2018,12,04,12,27,6.20
2018,12,04,12,28,6.20
2018,12,04,12,29,6.20
2018,12,04,12,30,6.20
2018,12,04,12,31,6.30
2018,12,04,12,32,6.30
2018,12,04,12,33,6.30
2018,12,04,12,34,6.30
2018,12,04,12,35,6.30
2018,12,04,12,36,6.30
2018,12,04,12,37,6.30
2018,12,04,12,38,6.30
2018,12,04,12,39,6.30
2018,12,04,12,40,6.30
2018,12,04,12,41,6.30
2018,12,04,12,42,6.30
2018,12,04,12,43,6.30
2018,12,04,12,44,6.30
2018,12,04,12,45,6.30
2018,12,04,12,46,6.30
2018,12,04,12,47,6.30
2018,12,04,12,48,6.40
2018,12,04,12,49,6.40
2018,12,04,12,50,6.40
2018,12,04,12,51,6.40
2018,12,04,12,52,6.40
2018,12,04,12,53,6.50
2018,12,04,12,54,6.50
2018,12,04,12,55,6.50
2018,12,04,12,56,6.50
2018,12,04,12,57,6.50
2018,12,04,12,58,6.50
2018,12,04,12,59,6.50
2018,12,04,13,00,6.60
2018,12,04,13,01,6.60
2018,12,04,13,02,6.60
2018,12,04,13,03,6.60
2018,12,04,13,04,6.60
2018,12,04,13,05,6.60
2018,12,04,13,06,6.60
2018,12,04,13,07,6.60
2018,12,04,13,08,6.60
2018,12,04,13,09,6.60
2018,12,04,13,10,6.70
2018,12,04,13,11,6.70
2018,12,04,13,12,6.70
2018,12,04,13,13,6.80
2018,12,04,13,14,6.80
2018,12,04,13,15,6.80
2018,12,04,13,16,6.80
2018,12,04,13,17,6.80
2018,12,04,13,18,6.80
2018,12,04,13,19,6.80
2018,12,04,13,20,6.90
2018,12,04,13,21,6.90
2018,12,04,13,22,6.90
2018,12,04,13,23,6.90
2018,12,04,13,24,6.90
2018,12,04,13,25,6.90
2018,12,04,13,26,6.90
2018,12,04,13,27,7.00
2018,12,04,13,28,7.00
2018,12,04,13,29,6.90
2018,12,04,13,30,6.90
2018,12,04,13,31,6.90
2018,12,04,13,32,6.90
2018,12,04,13,33,6.90
2018,12,04,13,34,7.00
2018,12,04,13,35,7.00
2018,12,04,13,36,6.90
2018,12,04,13,37,6.90
2018,12,04,13,38,6.90
2018,12,04,13,39,6.90
2018,12,04,13,40,6.90
2018,12,04,13,41,6.90
2018,12,04,13,42,6.90
2018,12,04,13,43,6.90
2018,12,04,13,44,6.90
2018,12,04,13,45,6.90
2018,12,04,13,46,6.90
2018,12,04,13,47,6.90
2018,12,04,13,48,6.90
2018,12,04,13,49,6.90
2018,12,04,13,50,6.90
2018,12,04,13,51,6.90
2018,12,04,13,52,6.90
2018,12,04,13,53,6.90
2018,12,04,13,54,6.90
2018,12,04,13,55,7.00
2018,12,04,13,56,7.00
2018,12,04,13,57,7.00
2018,12,04,13,58,7.00
2018,12,04,13,59,7.00
2018,12,04,14,00,7.00
2018,12,04,14,01,7.00
2018,12,04,14,02,7.00
2018,12,04,14,03,7.00
2018,12,04,14,04,7.00
2018,12,04,14,05,7.00
2018,12,04,14,06,7.00
2018,12,04,14,07,7.00
2018,12,04,14,08,7.00
2018,12,04,14,09,7.00
2018,12,04,14,10,7.00
2018,12,04,14,11,7.00
2018,12,04,14,12,7.00
2018,12,04,14,13,7.00
2018,12,04,14,14,7.10
2018,12,04,14,15,7.10
2018,12,04,14,16,7.10
2018,12,04,14,17,7.10
2018,12,04,14,18,7.20
2018,12,04,14,19,7.20
2018,12,04,14,20,7.30
2018,12,04,14,21,7.30
2018,12,04,14,22,7.30
2018,12,04,14,23,7.40
2018,12,04,14,24,7.40
2018,12,04,14,25,7.40
2018,12,04,14,26,7.40
2018,12,04,14,27,7.50
2018,12,04,14,28,7.50
2018,12,04,14,29,7.50
2018,12,04,14,30,7.50
2018,12,04,14,31,7.40
2018,12,04,14,32,7.40
2018,12,04,14,33,7.40
2018,12,04,14,34,7.30
2018,12,04,14,35,7.30
2018,12,04,14,36,7.30
2018,12,04,14,37,7.40
2018,12,04,14,38,7.40
2018,12,04,14,39,7.40
2018,12,04,14,40,7.40
2018,12,04,14,41,7.30
2018,12,04,14,42,7.30
2018,12,04,14,43,7.30
2018,12,04,14,44,7.30
2018,12,04,14,45,7.30
2018,12,04,14,46,7.20
2018,12,04,14,47,7.20
2018,12,04,14,48,7.20
2018,12,04,14,49,7.20
2018,12,04,14,50,7.20
2018,12,04,14,51,7.20
2018,12,04,14,52,7.10
2018,12,04,14,53,7.10
2018,12,04,14,54,7.10
2018,12,04,14,55,7.10
2018,12,04,14,56,7.10
2018,12,04,14,57,7.20
2018,12,04,14,58,7.20
2018,12,04,14,59,7.20
2018,12,04,15,00,7.10
2018,12,04,15,01,7.10
2018,12,04,15,02,7.10
2018,12,04,15,03,7.10
2018,12,04,15,04,7.10
2018,12,04,15,05,7.10
2018,12,04,15,06,7.10
2018,12,04,15,07,7.10
2018,12,04,15,08,7.00
2018,12,04,15,09,7.00
2018,12,04,15,10,6.90
2018,12,04,15,11,6.90
2018,12,04,15,12,6.80
2018,12,04,15,13,6.80
2018,12,04,15,14,6.80
2018,12,04,15,15,6.70
2018,12,04,15,16,6.70
2018,12,04,15,17,6.70
2018,12,04,15,18,6.70
2018,12,04,15,19,6.70
2018,12,04,15,20,6.70
2018,12,04,15,21,6.80
2018,12,04,15,22,6.80
2018,12,04,15,23,6.80
2018,12,04,15,24,6.80
2018,12,04,15,25,6.70
2018,12,04,15,26,6.70
2018,12,04,15,27,6.70
2018,12,04,15,28,6.70
2018,12,04,15,29,6.70
2018,12,04,15,30,6.70
2018,12,04,15,31,6.70
2018,12,04,15,32,6.70
2018,12,04,15,33,6.70
2018,12,04,15,34,6.70
2018,12,04,15,35,6.70
2018,12,04,15,36,6.60
2018,12,04,15,37,6.60
2018,12,04,15,38,6.60
2018,12,04,15,39,6.70
2018,12,04,15,40,6.60
2018,12,04,15,41,6.60
2018,12,04,15,42,6.60
2018,12,04,15,43,6.50
2018,12,04,15,44,6.50
2018,12,04,15,45,6.40
2018,12,04,15,46,6.40
2018,12,04,15,47,6.40
2018,12,04,15,48,6.30
2018,12,04,15,49,6.30
2018,12,04,15,50,6.30
2018,12,04,15,51,6.20
2018,12,04,15,52,6.20
2018,12,04,15,53,6.10
2018,12,04,15,54,6.10
2018,12,04,15,55,6.00
2018,12,04,15,56,5.90
2018,12,04,15,57,5.80
2018,12,04,15,58,5.70
2018,12,04,15,59,5.60
2018,12,04,16,00,5.50
2018,12,04,16,01,5.40
2018,12,04,16,02,5.30
2018,12,04,16,03,5.20
2018,12,04,16,04,5.20
2018,12,04,16,05,5.10
2018,12,04,16,06,5.00
2018,12,04,16,07,4.90
2018,12,04,16,08,4.80
2018,12,04,16,09,4.80
2018,12,04,16,10,4.70
2018,12,04,16,11,4.60
2018,12,04,16,12,4.60
2018,12,04,16,13,4.50
2018,12,04,16,14,4.50
2018,12,04,16,15,4.40
2018,12,04,16,16,4.30
2018,12,04,16,17,4.30
2018,12,04,16,18,4.20
2018,12,04,16,19,4.20
2018,12,04,16,20,4.20
2018,12,04,16,21,4.20
2018,12,04,16,22,4.20
2018,12,04,16,23,4.20
2018,12,04,16,24,4.20
2018,12,04,16,25,4.20
2018,12,04,16,26,4.10
2018,12,04,16,27,4.10
2018,12,04,16,28,4.10
2018,12,04,16,29,4.10
2018,12,04,16,30,4.10
2018,12,04,16,31,4.10
2018,12,04,16,32,4.00
2018,12,04,16,33,4.00
2018,12,04,16,34,3.90
2018,12,04,16,35,3.90
2018,12,04,16,36,3.90
2018,12,04,16,37,3.80
2018,12,04,16,38,3.80
2018,12,04,16,39,3.80
2018,12,04,16,40,3.80
2018,12,04,16,41,3.70
2018,12,04,16,42,3.70
2018,12,04,16,43,3.70
2018,12,04,16,44,3.70
2018,12,04,16,45,3.70
2018,12,04,16,46,3.60
2018,12,04,16,47,3.60
2018,12,04,16,48,3.60
2018,12,04,16,49,3.50
2018,12,04,16,50,3.50
2018,12,04,16,51,3.40
2018,12,04,16,52,3.40
2018,12,04,16,53,3.40
2018,12,04,16,54,3.40
2018,12,04,16,55,3.40
2018,12,04,16,56,3.40
2018,12,04,16,57,3.40
2018,12,04,16,58,3.30
2018,12,04,16,59,3.20
2018,12,04,17,00,3.20
2018,12,04,17,01,3.20
2018,12,04,17,02,3.20
2018,12,04,17,03,3.20
2018,12,04,17,04,3.20
2018,12,04,17,05,3.20
2018,12,04,17,06,3.20
2018,12,04,17,07,3.00
2018,12,04,17,08,3.00
2018,12,04,17,09,2.90
2018,12,04,17,10,2.90
2018,12,04,17,11,2.90
2018,12,04,17,12,2.80
2018,12,04,17,13,2.80
2018,12,04,17,14,2.80
2018,12,04,17,15,2.80
2018,12,04,17,16,2.70
2018,12,04,17,17,2.70
2018,12,04,17,18,2.70
2018,12,04,17,19,2.70
2018,12,04,17,20,2.70
2018,12,04,17,21,2.70
2018,12,04,17,22,2.70
2018,12,04,17,23,2.60
2018,12,04,17,24,2.60
2018,12,04,17,25,2.60
2018,12,04,17,26,2.60
2018,12,04,17,27,2.60
2018,12,04,17,28,2.60
2018,12,04,17,29,2.60
2018,12,04,17,30,2.60
2018,12,04,17,31,2.60
2018,12,04,17,32,2.50
2018,12,04,17,33,2.50
2018,12,04,17,34,2.50
2018,12,04,17,35,2.50
2018,12,04,17,36,2.50
2018,12,04,17,37,2.40
2018,12,04,17,38,2.40
2018,12,04,17,39,2.40
2018,12,04,17,40,2.40
2018,12,04,17,41,2.30
2018,12,04,17,42,2.30
2018,12,04,17,43,2.30
2018,12,04,17,44,2.30
2018,12,04,17,45,2.30
2018,12,04,17,46,2.30
2018,12,04,17,47,2.30
2018,12,04,17,48,2.30
2018,12,04,17,49,2.20
2018,12,04,17,50,2.20
2018,12,04,17,51,2.20
2018,12,04,17,52,2.20
2018,12,04,17,53,2.20
2018,12,04,17,54,2.20
2018,12,04,17,55,2.10
2018,12,04,17,56,2.10
2018,12,04,17,57,2.10
2018,12,04,17,58,2.10
2018,12,04,17,59,2.10
2018,12,04,18,00,2.10
2018,12,04,18,01,2.10
2018,12,04,18,02,2.00
2018,12,04,18,03,1.90
2018,12,04,18,04,1.90
2018,12,04,18,05,1.90
2018,12,04,18,06,1.90